FW2265 Weather Reports


time (UTC)temp
C
wind
direction
speed
KPH
gust
KPH
rain 1hr
cm
rain 24hr
cm
rain mn
cm
humidity
%
barometer
mb
20260506193524 28 185 0.0 4.8 0.00 0.00 0.00 78 1010.2
20260506191622 28 224 3.2 4.8 0.00 0.00 0.00 77 1010.2
20260506190624 28 129 0.0 0.0 0.00 0.00 0.00 78 1010.4
20260506190522 28 205 0.0 1.6 0.00 0.00 0.00 77 1010.6
20260506185523 28 202 0.0 1.6 0.00 0.00 0.00 79 1010.5
20260506185423 28 202 0.0 1.6 0.00 0.00 0.00 79 1010.5
20260506184424 28 219 0.0 3.2 0.00 0.00 0.00 78 1010.8
20260506182525 28 219 1.6 3.2 0.00 0.00 0.00 79 1010.9
20260506181623 28 202 1.6 3.2 0.00 0.00 0.00 79 1010.9
20260506180624 28 208 3.2 4.8 0.00 0.00 0.00 78 1011.1
20260506175723 28 225 0.0 4.8 0.00 0.00 0.00 81 1011.1
20260506174724 27 225 0.0 3.2 0.00 0.00 0.00 83 1011.2
20260506173726 27 227 0.0 1.6 0.00 0.00 0.00 83 1011.2
20260506172823 27 220 0.0 0.0 0.00 0.00 0.00 83 1011.3
20260506171824 27 190 1.6 6.4 0.00 0.00 0.00 84 1011.5
20260506171722 27 232 1.6 6.4 0.00 0.00 0.00 85 1011.5
20260506170726 27 225 0.0 0.0 0.00 0.00 0.00 87 1011.7
20260506165725 26 208 1.6 6.4 0.00 0.00 0.00 89 1011.7
20260506164823 26 225 0.0 0.0 0.00 0.00 0.00 89 1011.7
20260506163824 26 219 1.6 4.8 0.00 0.00 0.00 89 1011.7
20260506162824 26 225 0.0 1.6 0.00 0.00 0.00 87 1011.6
20260506161823 26 202 0.0 0.0 0.00 0.00 0.00 88 1011.5
20260506160824 26 225 0.0 1.6 0.00 0.00 0.00 88 1011.6
20260506155922 26 202 0.0 1.6 0.00 0.00 0.00 88 1011.5
20260506155022 26 202 0.0 3.2 0.00 0.00 0.00 88 1011.4
20260506154024 26 180 0.0 0.0 0.00 0.00 0.00 89 1011.1
20260506153026 26 137 0.0 0.0 0.00 0.00 0.00 88 1011.0
20260506152926 26 181 0.0 0.0 0.00 0.00 0.00 89 1011.0
20260506152023 26 225 0.0 0.0 0.00 0.00 0.00 87 1011.0
20260506151027 26 204 0.0 0.0 0.00 0.00 0.00 88 1010.9
20260506145924 26 218 0.0 1.6 0.00 0.00 0.00 89 1010.5
20260506144924 26 221 0.0 1.6 0.00 0.00 0.00 90 1010.4
20260506143923 26 202 0.0 0.0 0.00 0.00 0.00 90 1010.4
20260506142924 26 225 0.0 1.6 0.00 0.00 0.00 89 1010.5
20260506141924 26 225 0.0 3.2 0.00 0.00 0.00 89 1010.6
20260506140923 26 200 0.0 1.6 0.00 0.00 0.00 89 1010.6
20260506135923 26 180 1.6 3.2 0.00 0.00 0.00 89 1010.7
20260506133923 25 202 0.0 0.0 0.00 0.00 0.00 92 1010.6
20260506132924 25 202 0.0 3.2 0.00 0.00 0.00 92 1010.8
20260506130923 25 157 0.0 0.0 0.00 0.00 0.00 92 1010.9
20260506125924 25 202 0.0 0.0 0.00 0.00 0.00 93 1010.8
20260506124923 25 202 0.0 0.0 0.00 0.00 0.00 93 1010.6
20260506122924 24 225 0.0 0.0 0.00 0.00 0.00 94 1010.5
20260506121824 24 225 0.0 0.0 0.00 0.00 0.00 93 1010.4
20260506120923 24 188 0.0 3.2 0.00 0.00 0.00 95 1010.4
20260506115924 24 202 0.0 1.6 0.00 0.00 0.00 95 1010.2
20260506114924 24 202 0.0 0.0 0.00 0.00 0.00 95 1010.0
20260506114825 23 217 0.0 1.6 0.00 0.00 0.00 95 1009.9
20260506113824 23 225 0.0 0.0 0.00 0.00 0.00 94 1009.8
20260506111823 24 225 0.0 0.0 0.00 0.00 0.00 95 1009.6
20260506110922 24 225 0.0 1.6 0.00 0.00 0.00 95 1009.6
20260506105926 23 225 0.0 3.2 0.00 0.00 0.00 95 1009.4
20260506105023 23 247 0.0 0.0 0.00 0.00 0.00 94 1009.7
20260506104024 23 225 0.0 0.0 0.00 0.00 0.00 95 1009.6
20260506103925 23 225 0.0 0.0 0.00 0.00 0.00 94 1009.6
20260506102924 23 225 0.0 0.0 0.00 0.00 0.00 94 1009.5
20260506101924 23 225 0.0 0.0 0.00 0.00 0.00 95 1009.7
20260506100039 23 225 0.0 0.0 0.00 0.00 0.00 94 1009.4
20260506095024 23 225 0.0 0.0 0.00 0.00 0.00 94 1009.4
20260506094025 23 225 0.0 0.0 0.00 0.00 0.00 93 1009.3
20260506093122 24 225 0.0 0.0 0.00 0.00 0.00 93 1009.4
20260506093024 24 225 0.0 0.0 0.00 0.00 0.00 92 1009.3
20260506092023 24 225 0.0 0.0 0.00 0.00 0.00 93 1009.4
20260506091023 24 225 0.0 0.0 0.00 0.00 0.00 92 1009.4
20260506083123 24 180 0.0 1.6 0.00 0.00 0.00 92 1009.9
20260506082126 24 225 0.0 0.0 0.00 0.00 0.00 91 1009.6
20260506081125 25 225 0.0 0.0 0.00 0.00 0.00 91 1009.7
20260506080125 25 221 0.0 1.6 0.00 0.00 0.00 91 1009.8
20260506073323 25 220 3.2 6.4 0.00 0.00 0.00 90 1010.2
20260506072325 25 207 1.6 4.8 0.00 0.00 0.00 90 1010.4
20260506071422 25 235 0.0 6.4 0.00 0.00 0.00 90 1010.4
20260506061624 25 225 0.0 3.2 0.00 0.00 0.00 89 1010.3
20260506060622 25 202 0.0 1.6 0.00 0.00 0.00 90 1010.3
20260506050722 25 214 0.0 1.6 0.00 0.00 0.00 88 1010.5
20260506043722 25 215 1.6 4.8 0.00 0.00 0.00 89 1010.4
20260506042724 25 180 0.0 1.6 0.00 0.00 0.00 88 1010.3
20260506041724 25 227 0.0 1.6 0.00 0.00 0.00 89 1010.4
20260506035723 25 202 0.0 1.6 0.00 0.00 0.00 89 1010.2
20260506033726 25 222 1.6 6.4 0.00 0.00 0.00 87 1010.2
20260506031725 25 225 1.6 4.8 0.00 0.00 0.00 88 1010.1
20260506030724 25 225 0.0 4.8 0.00 0.00 0.00 89 1010.0
20260506025723 25 178 0.0 1.6 0.00 0.00 0.00 89 1009.9
20260506024723 25 217 1.6 4.8 0.00 0.00 0.00 89 1009.8
20260506024624 25 225 0.0 1.6 0.00 0.00 0.00 89 1009.9
20260506023624 25 192 0.0 4.8 0.00 0.00 0.00 89 1009.5
20260506022722 25 225 0.0 1.6 0.00 0.00 0.00 88 1009.4
20260506021722 25 214 1.6 6.4 0.00 0.00 0.00 88 1009.3
20260506020723 25 188 0.0 3.2 0.00 0.00 0.00 88 1009.3
20260506015724 25 225 0.0 4.8 0.00 0.00 0.00 87 1009.0
20260506014724 25 202 0.0 3.2 0.00 0.00 0.00 87 1008.9
20260506013822 25 180 0.0 3.2 0.00 0.00 0.00 86 1008.8
20260506012822 25 173 1.6 14.5 0.00 0.00 0.00 86 1008.8
20260506011824 25 189 0.0 1.6 0.00 0.00 0.00 85 1008.7
20260506010825 25 225 0.0 1.6 0.00 0.00 0.00 84 1008.5
20260506005923 25 232 3.2 6.4 0.00 0.00 0.00 85 1008.5
20260506004024 25 206 1.6 6.4 0.00 0.00 0.00 84 1008.3
20260506003023 26 219 3.2 6.4 0.00 0.00 0.00 84 1008.2
20260506002025 26 183 0.0 3.2 0.00 0.00 0.00 83 1008.3
20260506001121 26 215 3.2 8.0 0.00 0.00 0.00 83 1008.1
20260506000122 26 218 1.6 6.4 0.00 0.00 0.00 83 1008.2
20260505235125 26 156 0.0 4.8 0.00 0.00 0.00 81 1008.1
20260505234223 26 201 3.2 11.3 0.00 0.00 0.00 81 1008.1
20260505233121 26 217 1.6 6.4 0.00 0.00 0.00 81 1008.3
20260505230222 26 185 0.0 6.4 0.00 0.00 0.00 78 1008.4
20260505225223 26 226 4.8 8.0 0.00 0.00 0.00 78 1008.3
20260505224224 26 220 0.0 0.0 0.00 0.00 0.00 80 1008.2
20260505222222 26 182 0.0 4.8 0.00 0.00 0.00 81 1008.3
20260505221223 26 193 0.0 3.2 0.00 0.00 0.00 80 1008.4
20260505220224 26 204 3.2 6.4 0.00 0.00 0.00 80 1008.4
20260505215223 27 185 0.0 4.8 0.00 0.00 0.00 80 1008.7
20260505214223 27 168 0.0 1.6 0.00 0.00 0.00 79 1008.6
20260505213223 27 192 1.6 6.4 0.00 0.00 0.00 79 1008.8
20260505212124 26 208 1.6 4.8 0.00 0.00 0.00 81 1008.8
20260505211125 27 213 4.8 8.0 0.00 0.00 0.00 80 1009.0
20260505210122 27 185 0.0 1.6 0.00 0.00 0.00 80 1008.8
20260505205123 27 180 0.0 1.6 0.00 0.00 0.00 81 1009.2
20260505203123 26 204 3.2 6.4 0.00 0.00 0.00 81 1009.4
20260505201123 27 191 0.0 1.6 0.00 0.00 0.00 80 1009.7
20260505200124 27 225 3.2 6.4 0.00 0.00 0.00 80 1009.7
20260505195222 27 231 0.0 1.6 0.00 0.00 0.00 81 1009.7
20260505195123 27 206 0.0 1.6 0.00 0.00 0.00 81 1009.9
20260505194124 27 192 1.6 9.7 0.00 0.00 0.00 80 1009.9